Temperature
20 20 20 19 19 19 19 18 18 18 18 18 18 17 17 17 17 17 16 16 16 16 16 16 16 16 16 16 16 16 16 16 16 15 15 15 15 15 15 15 15 15 15
20 20 19 19 19 18 18 18 18 18 18 18 17 17 17 17 17 16 16 16 16 16 16 15 15 15 15 15 15 15 15 15 15 15 15 15 15 15 15 15 15 14 15
20 19 19 19 19 18 18 18 18 18 17 17 17 17 17 17 16 16 16 16 16 16 15 15 15 15 15 15 15 15 15 15 15 15 15 15 14 14 14 14 14 14 14
20 19 19 19 18 18 18 18 18 17 17 17 17 17 16 16 16 16 16 16 15 15 15 15 15 15 15 15 15 15 15 15 14 14 14 14 14 14 14 14 14 14 14
19 19 19 18 18 18 18 17 17 17 17 17 16 16 16 16 16 16 15 15 15 15 15 15 15 15 15 15 14 14 14 14 14 14 14 14 14 14 14 13 13 13 13
19 19 19 18 18 17 17 17 17 17 16 16 16 16 16 15 15 15 15 15 15 15 15 15 15 15 15 15 14 14 14 14 14 13 13 13 13 13 13 13 13 13 13
19 18 18 18 17 17 17 17 17 16 16 16 16 16 15 15 15 15 15 15 15 14 14 14 14 14 14 14 14 14 14 14 14 13 13 13 13 13 13 13 13 13 13
18 18 17 17 17 17 17 17 16 16 16 16 16 15 15 15 15 15 15 15 14 14 14 14 14 14 14 14 13 13 13 13 13 13 13 13 13 13 13 13 12 12 12
18 17 17 17 17 17 16 16 16 16 16 15 15 15 15 15 15 15 15 14 14 14 14 14 14 14 14 14 13 13 13 13 13 13 13 13 13 13 12 12 12 12 12
17 17 17 17 16 16 16 16 16 16 15 15 15 15 15 15 15 15 14 14 14 14 14 14 14 14 14 13 13 13 13 13 13 13 13 13 13 12 12 12 12 12 11
17 17 16 16 16 16 16 16 15 15 15 15 15 15 15 15 15 15 14 14 14 14 14 14 13 13 13 13 13 13 13 12 12 12 12 12 12 12 12 12 12 12 11
16 16 16 16 16 16 15 15 15 15 15 15 15 14 14 14 14 14 14 14 14 13 13 13 13 13 13 13 13 13 13 12 12 12 12 12 12 12 12 12 12 12 12
16 16 15 15 15 15 15 15 15 15 14 14 14 14 14 14 14 14 14 14 13 13 13 13 13 13 13 13 13 13 12 12 12 12 12 12 12 12 12 12 12 11 11
15 15 15 15 15 15 15 14 14 14 14 14 14 14 14 14 14 14 13 13 13 13 12 13 12 12 12 12 12 12 12 12 12 12 12 12 12 11 11 11 11 11 11
15 15 15 15 14 14 14 14 14 14 14 14 14 14 14 13 13 13 13 13 13 12 12 12 12 12 12 12 12 12 12 12 12 12 12 11 11 11 11 11 11 11 11
14 14 14 14 14 14 14 14 14 14 14 14 14 14 14 13 13 13 13 13 13 12 12 12 12 12 11 11 12 11 12 11 11 11 11 11 11 11 11 11 11 11 11
14 14 14 14 14 14 14 14 14 13 14 13 13 13 13 13 13 13 13 13 12 12 12 11 11 11 11 11 11 11 11 11 11 11 11 11 11 11 11 11 11 11 11
13 13 13 14 14 14 14 14 14 13 13 13 13 13 13 13 13 13 12 12 12 12 11 11 11 11 11 11 11 11 11 11 11 11 11 11 11 11 11 11 11 11 11
13 13 13 13 13 13 13 13 13 13 13 13 13 13 13 13 13 12 12 12 12 11 11 11 11 11 11 11 11 11 11 11 11 11 11 11 11 11 11 11 11 11 11
13 13 13 12 12 13 13 13 13 13 13 13 13 13 13 12 12 12 12 12 11 11 11 11 11 11 11 11 11 11 11 11 11 11 11 10 10 10 10 10 10 10 10
12 12 12 12 12 12 12 13 13 13 13 13 12 12 12 12 12 12 12 12 11 11 11 11 11 11 11 11 11 11 11 11 11 11 10 10 10 10 10 10 10 10 10
12 12 12 12 12 12 12 12 12 12 12 12 12 12 12 12 12 12 12 11 11 11 11 11 11 11 10 10 10 10 10 10 10 10 10 10 10 10 10 10 10 10 10
12 12 12 12 12 12 12 12 12 12 12 12 12 12 12 12 11 11 11 11 11 11 11 11 10 10 10 10 10 10 10 10 10 10 10 10 10 10 10 10 10 10 10
11 11 11 11 11 11 11 11 11 11 11 11 11 11 11 11 11 11 11 11 11 11 10 10 10 10 10 10 10 10 10 10 10 10 10 10 10 10 10 10 10 10 9
11 11 11 11 11 10 10 10 10 11 11 11 11 11 11 11 10 10 10 10 10 10 10 10 10 10 10 10 10 10 10 10 10 10 10 9 9 9 9 9 9 9 9
10 10 10 10 10 10 10 10 10 10 10 10 10 10 10 10 10 10 10 10 10 10 10 10 10 10 10 10 10 10 10 10 10 10 9 9 9 9 9 9 9 8 9
Wind_Speed
7 6 5 5 5 5 4 3 3 3 3 2 2 2 2 2 1 1 0 0 0 1 2 1 1 1 2 2 2 2 1 0 1 1 1 0 0 0 1 2 4 6 7
6 6 5 5 5 5 5 4 4 4 3 2 3 2 2 2 2 1 1 0 0 0 1 1 1 1 1 2 2 2 1 1 1 2 1 0 1 1 1 3 2 3 5
5 6 6 6 5 5 4 4 4 3 3 2 2 3 2 2 2 2 2 1 1 1 1 0 1 1 1 1 2 2 2 2 1 2 2 1 1 1 1 2 2 2 3
5 5 3 4 4 4 4 4 4 3 3 3 3 3 3 2 2 2 2 1 1 1 1 0 1 0 1 1 1 1 2 2 2 2 2 1 1 1 1 2 2 2 2
4 4 3 2 2 2 3 4 3 3 3 2 2 2 3 3 2 1 1 2 1 1 1 1 1 1 0 1 1 1 1 2 2 2 2 2 1 1 2 2 3 3 2
4 4 4 3 2 2 2 3 3 3 3 3 3 2 3 3 3 2 1 1 2 2 2 2 2 3 2 1 2 1 1 1 2 2 2 2 2 2 2 3 2 3 3
3 3 3 3 3 3 3 3 3 3 3 2 2 2 2 2 3 2 2 2 3 3 3 3 4 3 2 2 3 3 4 4 5 4 3 4 3 2 2 3 3 4 4
4 3 3 3 3 2 2 2 4 4 4 3 3 3 3 3 4 3 2 4 4 4 4 4 3 2 2 1 3 3 4 4 4 4 3 4 4 3 3 4 5 4 4
3 3 3 3 3 3 3 3 2 3 3 4 4 4 4 3 5 4 3 4 4 4 4 4 3 2 2 2 3 4 3 3 4 4 5 5 6 6 5 3 4 3 4
2 2 2 2 2 3 3 3 2 2 3 3 3 3 3 4 6 6 4 4 4 4 3 3 3 3 3 3 3 3 4 4 3 3 4 6 6 7 7 5 4 3 3
2 2 2 3 3 4 3 3 3 3 3 4 4 4 4 5 7 8 7 4 4 4 3 2 2 4 4 4 4 4 5 5 4 4 4 4 4 4 4 4 3 3 3
2 2 2 2 3 3 3 3 3 3 3 4 5 5 4 5 6 7 9 8 6 4 3 2 2 5 5 6 6 6 7 6 4 5 4 3 3 3 2 2 3 3 4
1 1 1 1 2 2 3 3 4 4 4 4 4 4 4 3 4 7 8 8 8 5 3 3 4 6 6 6 8 9 6 5 5 5 4 3 3 2 2 2 3 4 5
0 1 1 2 2 2 3 3 3 3 3 4 3 3 3 2 2 3 3 4 5 4 3 3 4 6 7 6 5 5 5 5 4 4 4 3 2 2 2 3 3 3 4
1 2 2 3 3 2 2 2 2 1 2 3 2 2 2 2 2 3 3 3 3 3 3 3 3 3 4 4 4 3 3 3 4 4 3 3 3 3 3 3 3 4 4
2 2 3 3 2 2 2 2 2 3 2 3 4 4 4 4 5 6 6 6 5 4 3 5 5 5 5 4 4 4 4 4 4 4 4 4 3 4 4 4 3 4 4
2 2 3 3 3 3 3 3 2 3 3 3 5 6 6 6 6 7 7 6 5 5 5 6 6 5 5 5 5 4 4 4 4 4 4 4 4 4 4 4 3 4 4
3 3 4 3 3 3 4 4 4 4 3 3 4 7 7 7 8 8 7 4 4 5 6 6 6 5 5 5 4 4 4 3 3 3 4 4 4 4 4 4 3 4 4
4 3 3 4 5 4 4 4 5 4 4 3 2 3 5 5 6 6 5 5 6 6 6 5 5 4 4 4 3 4 3 4 4 4 4 4 4 3 4 4 4 5 5
3 5 5 5 5 5 5 5 5 4 4 4 4 3 3 3 3 4 5 6 7 7 6 6 5 5 4 4 3 3 4 4 4 4 4 4 4 4 5 5 4 4 4
4 4 6 6 5 5 5 5 5 4 4 4 5 3 4 5 5 6 6 6 7 7 5 5 5 5 5 4 4 4 5 5 5 4 4 4 4 4 4 4 4 3 3
5 5 5 5 5 5 5 5 5 5 5 6 5 3 5 5 5 5 5 5 6 5 5 4 5 5 4 5 5 5 5 5 5 4 4 4 4 4 4 3 3 3 3
6 6 5 5 5 5 5 6 6 5 5 5 4 3 4 5 5 4 4 4 4 5 5 5 6 5 4 4 4 5 5 6 5 5 5 5 4 4 3 3 3 3 3
6 6 6 5 5 5 5 5 6 6 6 5 4 4 4 4 5 5 4 4 4 4 4 4 5 6 6 5 4 4 4 5 5 4 5 5 4 4 3 3 3 3 3
6 6 5 5 5 5 6 6 6 6 6 6 5 5 5 5 5 5 4 4 4 4 5 5 4 5 6 6 5 5 4 4 4 4 4 4 5 4 3 3 3 3 3
5 5 4 4 4 5 6 6 6 6 6 5 5 5 4 4 5 5 5 4 4 4 5 5 5 6 6 5 5 3 4 5 5 5 5 4 5 4 4 3 4 3 3
Wind_Direction
170 169 165 172 178 178 185 180 164 161 166 161 152 153 150 144 140 151 218 56 17 330 326 331 328 345 348 352 352 0 4 27 270 302 356 85 156 284 195 204 204 190 195
165 165 167 173 179 186 188 180 173 167 176 172 165 172 177 166 168 172 226 285 264 299 305 331 317 312 342 333 338 336 326 309 249 277 304 289 264 211 213 246 240 219 198
160 166 172 179 187 193 187 170 168 173 184 177 169 173 182 183 191 196 193 246 286 284 282 303 290 296 283 304 302 312 312 312 279 255 271 267 256 276 265 272 274 257 250
149 156 163 184 185 185 179 170 176 181 192 196 185 181 191 198 200 198 189 215 251 287 312 297 298 300 275 271 275 307 311 310 295 283 271 272 281 316 289 274 277 268 269
143 151 155 162 157 160 163 166 172 187 202 195 198 201 208 214 206 174 215 215 211 259 278 273 260 207 334 293 292 305 299 298 301 295 280 278 297 316 287 280 280 282 259
148 149 145 153 158 150 172 167 172 189 204 201 207 214 227 232 149 143 207 230 224 236 251 253 240 222 195 212 240 257 268 258 281 289 289 281 277 271 283 283 290 301 287
145 147 148 157 166 175 191 169 182 197 201 209 212 214 219 197 164 155 172 237 233 236 241 243 256 243 194 226 237 239 252 253 248 254 263 274 277 270 273 286 283 281 277
149 151 158 170 177 181 193 193 204 199 200 205 213 211 212 198 166 175 217 237 231 233 237 241 244 229 252 272 262 258 248 252 257 253 257 269 274 274 257 257 271 269 263
164 168 175 181 185 196 206 212 218 209 208 209 210 202 203 193 181 191 215 256 240 239 232 231 216 215 225 269 267 268 269 268 267 254 249 254 259 261 258 263 270 274 280
174 178 177 187 202 208 209 209 213 214 216 219 222 215 211 203 195 196 207 256 255 250 230 208 197 197 207 244 263 269 269 273 281 266 253 256 253 251 245 236 251 267 282
167 169 176 191 205 205 204 209 215 223 227 221 226 224 218 208 198 198 202 238 263 264 250 214 200 190 208 242 258 262 262 275 274 263 254 245 240 237 231 229 228 238 255
146 173 196 209 233 219 192 206 211 219 235 229 227 229 220 201 193 199 206 228 254 266 261 248 211 203 224 246 254 254 260 270 265 262 255 250 246 241 235 233 228 233 236
152 189 217 231 242 219 202 212 216 220 234 243 234 231 226 201 190 194 210 230 242 259 286 271 247 232 243 253 245 246 249 251 254 258 256 254 252 248 239 242 249 242 244
193 255 235 223 235 236 229 229 228 233 241 248 256 259 249 223 200 195 211 226 238 244 264 277 248 241 251 255 251 244 243 248 250 256 263 258 248 245 249 254 253 247 246
273 270 256 250 243 243 244 261 254 251 242 251 273 284 277 263 243 209 220 235 240 251 259 256 249 254 250 244 244 244 244 250 253 255 257 259 257 256 256 251 249 256 254
255 262 267 262 256 255 240 261 265 233 206 210 228 247 256 246 224 216 216 220 218 219 236 252 252 247 250 251 245 245 240 239 243 248 250 251 252 254 258 256 254 250 249
300 292 286 279 264 257 255 246 260 254 238 239 242 240 232 230 225 222 222 224 229 210 231 249 250 248 249 253 249 246 245 239 234 241 246 247 248 255 260 256 254 250 250
299 295 292 289 284 275 269 261 250 253 255 252 240 235 230 226 224 223 219 212 239 231 243 249 249 249 246 248 250 245 245 243 238 241 249 250 248 253 257 260 257 255 253
293 294 295 295 287 283 283 281 276 272 273 273 254 246 228 225 231 228 204 227 243 246 249 252 252 252 252 254 258 251 244 247 249 248 249 246 249 258 261 259 258 254 252
265 269 277 285 284 279 273 274 275 276 275 272 264 248 206 213 236 228 220 232 244 249 245 247 249 252 250 251 256 254 249 243 241 244 251 252 251 257 263 264 262 258 251
279 265 255 272 276 282 285 284 281 275 275 269 266 256 219 226 238 238 237 239 243 247 245 249 250 246 239 236 242 253 255 250 242 241 241 239 248 260 265 267 265 258 258
287 282 272 271 278 282 285 288 286 280 279 284 285 257 229 245 256 251 243 245 252 251 247 247 253 251 243 236 236 244 256 259 253 248 249 247 246 257 259 254 256 257 258
277 277 276 273 277 269 269 275 279 281 280 281 284 275 247 263 277 275 267 262 259 258 251 246 247 247 247 241 239 238 246 252 249 241 242 245 244 245 247 245 253 255 246
282 284 287 289 289 289 287 288 289 290 290 287 283 277 266 261 272 279 281 277 275 273 268 258 248 246 249 246 245 241 243 253 248 241 240 246 248 249 242 243 246 251 253
291 288 285 287 290 292 290 289 290 292 291 288 286 281 280 276 274 279 279 277 277 274 276 274 259 249 248 244 243 245 242 227 227 236 239 238 241 242 241 244 249 251 241
293 292 297 298 293 288 287 289 289 290 291 292 290 287 284 285 285 280 281 283 283 283 281 280 281 279 261 245 239 229 194 196 205 218 222 232 233 232 228 230 244 252 250
Height
1508 1509 1511 1512 1513 1514 1515 1516 1517 1518 1519 1519 1519 1519 1520 1520 1520 1520 1520 1520 1521 1521 1522 1522 1522 1522 1522 1522 1522 1522 1522 1523 1522 1522 1522 1522 1522 1521 1520 1520 1520 1520 1519
1506 1507 1509 1510 1512 1512 1513 1514 1515 1516 1517 1517 1517 1517 1518 1518 1518 1518 1519 1519 1519 1519 1520 1520 1520 1520 1520 1520 1520 1520 1521 1521 1521 1520 1520 1520 1519 1519 1518 1518 1518 1517 1517
1504 1506 1507 1508 1509 1510 1511 1512 1513 1513 1514 1515 1515 1515 1516 1516 1516 1516 1517 1517 1517 1518 1518 1518 1518 1518 1518 1518 1518 1518 1518 1519 1519 1519 1518 1518 1517 1517 1516 1516 1516 1515 1515
1502 1503 1504 1506 1507 1507 1508 1509 1510 1511 1512 1513 1513 1513 1514 1514 1514 1514 1515 1516 1516 1516 1516 1516 1516 1516 1516 1516 1516 1516 1516 1516 1516 1516 1516 1516 1515 1514 1514 1513 1513 1512 1512
1500 1501 1502 1503 1504 1505 1505 1505 1507 1508 1510 1510 1511 1511 1512 1512 1512 1513 1513 1514 1514 1514 1514 1514 1514 1514 1514 1514 1514 1513 1513 1513 1513 1513 1513 1513 1512 1511 1511 1510 1510 1509 1509
1498 1498 1499 1501 1502 1502 1503 1503 1504 1506 1507 1508 1509 1509 1509 1510 1511 1511 1511 1512 1512 1512 1512 1512 1512 1512 1512 1511 1511 1511 1511 1511 1510 1510 1510 1509 1509 1508 1508 1508 1507 1507 1506
1496 1497 1498 1499 1500 1500 1501 1502 1502 1503 1505 1505 1506 1506 1507 1507 1508 1509 1509 1509 1510 1510 1510 1510 1510 1509 1509 1509 1508 1508 1508 1507 1508 1507 1506 1506 1505 1505 1505 1504 1504 1504 1503
1495 1495 1496 1497 1498 1498 1499 1500 1500 1501 1502 1502 1503 1504 1504 1505 1506 1506 1507 1507 1507 1507 1507 1507 1507 1507 1507 1506 1506 1505 1504 1504 1504 1504 1503 1503 1502 1502 1501 1501 1501 1500 1500
1494 1494 1494 1495 1496 1496 1497 1497 1498 1499 1499 1500 1500 1501 1501 1502 1503 1503 1504 1504 1504 1504 1504 1504 1504 1504 1504 1503 1503 1502 1501 1501 1501 1500 1500 1499 1499 1498 1498 1498 1497 1497 1496
1492 1492 1492 1493 1494 1494 1495 1495 1496 1497 1497 1498 1498 1499 1499 1499 1500 1500 1501 1501 1501 1500 1500 1500 1501 1500 1500 1500 1500 1499 1498 1498 1497 1497 1496 1496 1495 1495 1495 1494 1494 1493 1493
1490 1490 1491 1491 1491 1492 1493 1493 1494 1494 1495 1495 1495 1496 1496 1496 1497 1497 1497 1497 1497 1497 1498 1497 1497 1497 1497 1497 1496 1496 1495 1495 1494 1494 1493 1492 1492 1491 1491 1490 1490 1490 1490
1487 1488 1489 1489 1490 1491 1491 1491 1491 1492 1492 1492 1493 1493 1493 1493 1494 1494 1494 1494 1494 1494 1494 1494 1494 1494 1493 1493 1492 1492 1492 1492 1491 1490 1490 1489 1489 1488 1487 1487 1487 1486 1486
1486 1486 1487 1487 1488 1489 1489 1489 1489 1489 1490 1490 1490 1490 1490 1490 1490 1491 1491 1490 1491 1491 1491 1491 1490 1490 1489 1489 1488 1488 1488 1488 1487 1487 1486 1486 1485 1485 1484 1484 1483 1483 1483
1484 1484 1485 1485 1486 1486 1486 1487 1487 1487 1487 1487 1488 1488 1487 1487 1487 1487 1487 1487 1487 1487 1487 1486 1486 1486 1485 1485 1485 1484 1484 1484 1484 1483 1483 1482 1482 1481 1481 1481 1480 1480 1479
1481 1482 1483 1483 1483 1484 1484 1484 1484 1484 1484 1484 1484 1484 1484 1484 1484 1483 1483 1483 1483 1483 1483 1482 1482 1481 1481 1481 1481 1481 1480 1480 1480 1479 1479 1479 1478 1478 1477 1477 1477 1476 1476
1480 1479 1480 1480 1480 1481 1481 1481 1480 1480 1480 1480 1481 1481 1480 1480 1480 1479 1479 1479 1478 1478 1478 1477 1477 1477 1477 1477 1477 1476 1476 1476 1475 1475 1475 1475 1475 1475 1474 1474 1473 1473 1472
1478 1477 1477 1477 1478 1478 1478 1477 1476 1476 1476 1476 1476 1476 1476 1475 1475 1474 1474 1474 1474 1474 1474 1473 1473 1473 1473 1473 1473 1472 1472 1472 1472 1471 1471 1471 1471 1471 1470 1470 1469 1469 1469
1475 1475 1475 1475 1474 1474 1474 1473 1473 1472 1472 1472 1472 1472 1471 1471 1470 1470 1470 1470 1469 1469 1469 1469 1469 1469 1469 1469 1468 1468 1468 1467 1467 1467 1467 1467 1467 1467 1466 1466 1465 1465 1465
1473 1472 1472 1472 1472 1471 1471 1470 1470 1469 1469 1468 1468 1468 1468 1467 1466 1466 1466 1465 1465 1465 1465 1464 1464 1464 1464 1464 1464 1464 1464 1463 1463 1463 1463 1463 1463 1462 1462 1462 1461 1461 1461
1470 1470 1469 1469 1468 1468 1467 1467 1466 1465 1465 1465 1465 1464 1463 1462 1462 1461 1461 1461 1461 1460 1460 1460 1460 1460 1460 1460 1460 1460 1459 1459 1459 1459 1458 1458 1459 1458 1458 1458 1457 1457 1457
1468 1467 1466 1466 1465 1465 1464 1463 1463 1462 1462 1461 1461 1460 1459 1458 1458 1457 1457 1457 1456 1456 1456 1455 1455 1455 1455 1455 1455 1455 1454 1454 1454 1454 1454 1454 1454 1454 1454 1454 1454 1453 1453
1464 1464 1463 1462 1462 1461 1460 1459 1459 1459 1458 1457 1457 1456 1455 1455 1454 1453 1452 1452 1452 1451 1451 1451 1450 1450 1450 1450 1450 1449 1449 1449 1449 1449 1449 1449 1449 1450 1450 1449 1449 1449 1448
1461 1460 1459 1458 1457 1457 1456 1456 1455 1454 1454 1453 1453 1452 1451 1451 1450 1449 1448 1448 1447 1446 1446 1446 1446 1445 1445 1445 1445 1444 1444 1443 1443 1443 1443 1443 1444 1444 1445 1445 1445 1445 1445
1457 1456 1455 1454 1454 1453 1452 1451 1451 1450 1449 1449 1448 1447 1447 1446 1445 1445 1444 1443 1443 1442 1441 1440 1440 1439 1438 1438 1439 1438 1438 1437 1437 1437 1437 1438 1438 1439 1440 1440 1440 1441 1441
1453 1452 1451 1450 1450 1449 1448 1447 1446 1446 1445 1444 1444 1443 1442 1441 1441 1440 1439 1438 1438 1437 1436 1435 1434 1434 1433 1432 1432 1432 1431 1431 1431 1432 1432 1433 1433 1434 1435 1436 1436 1436 1437
1449 1448 1447 1446 1445 1444 1444 1443 1442 1441 1440 1440 1439 1438 1438 1437 1436 1435 1434 1433 1432 1431 1431 1430 1429 1428 1428 1427 1426 1426 1426 1426 1426 1427 1427 1428 1429 1430 1431 1432 1432 1433 1434